SCP
0 0 0 0 0 0 0 0 0 0 0 0 0 0 0 0 0 0 0 0 0 0 0 0 0 0 0 0 0 0 0 0 0 0 0 0 0 0
0 0 0 0 0 0 0 0 0 0 0 0 0 0 0 0 0 0 0 0 0 0 0 0 0 0 0 0 0 0 0 0 0 0 0 0 0 0
0 0 0 0 0 0 0 0 0 0 0 0 0 0 0 0 0 0 0 0 0 0 0 0 0 0 0 0 0 0 0 0 0 0 0 0 0 0
0 0 0 0 0 0 0 0 0 0 0 0 0 0 0 0 0 0 0 0 0 0 0 0 0 0 0 0 0 0 0 0 0 0 0 0 0 0
0 0 0 0 0 0 0 0 0 0 0 0 0 0 0 0 0 0 0 0 0 0 0 0 0 0 0 0 0 0 0 0 0 0 0 0 0 0
0 0 0 0 0 0 0 0 0 0 0 0 0 0 0 0 0 0 0 0 0 0 0 0 0 0 0 0 0 0 0 0 0 0 0 0 0 0
0 0 0 0 0 0 0 0 0 0 0 0 0 0 0 0 0 0 0 0 0 0 0 0 0 0 0 0 0 0 0 0 0 0 0 0 0 0
0 0 0 0 0 0 0 0 0 0 0 0 0 0 0 0 0 0 0 0 0 0 0 0 0 0 0 0 0 0 0 0 0 0 0 0 0 0
0 0 0 0 0 0 0 0 0 0 0 0 0 0 0 0 0 0 0 0 0 0 0 0 0 0 0 0 0 0 0 0 0 0 0 0 0 0
0 0 0 0 0 0 0 0 0 0 0 0 0 0 0 0 0 0 0 0 0 0 0 0 0 0 0 0 0 0 0 0 0 0 0 0 0 0
0 0 0 0 0 0 0 0 0 0 0 0 0 0 0 0 0 0 0 0 0 0 0 0 0 0 0 0 0 0 0 0 0 0 0 0 0 0
0 0 0 0 0 0 0 0 0 0 0 0 0 0 0 0 0 0 0 0 0 0 0 0 0 0 0 0 0 0 0 0 0 0 0 0 0 0
0 0 0 0 0 0 0 0 0 0 0 0 0 0 0 0 0 0 0 0 0 0 0 0 0 0 0 0 0 0 0 0 0 0 0 0 0 0
0 0 0 0 0 0 0 0 0 0 0 0 0 0 0 0 0 0 0 0 0 0 0 0 0 0 0 0 0 0 0 0 0 0 0 0 0 0
0 0 0 0 0 0 0 0 0 0 0 0 0 0 0 0 0 0 0 0 0 0 0 0 0 0 0 0 0 0 0 0 0 0 0 0 0 0
0 0 0 0 0 0 0 0 0 0 0 0 0 0 0 0 0 0 0 0 0 0 0 0 0 0 0 0 0 0 0 0 0 0 0 0 0 0
0 0 0 0 0 0 0 0 0 0 0 0 0 0 0 0 0 0 0 0 0 0 0 0 0 0 0 0 0 0 0 0 0 0 0 0 0 0
0 0 0 0 0 0 0 0 0 0 0 0 0 0 0 0 0 0 0 0 0 0 0 0 0 0 0 0 0 0 0 0 0 0 0 0 0 0
0 0 0 0 0 0 0 0 0 0 0 0 0 0 0 0 0 0 0 0 0 0 0 0 0 0 0 0 0 0 0 0 0 0 0 0 0 0
0 0 0 0 0 0 0 0 0 0 0 0 0 0 0 0 0 0 0 0 0 0 0 0 0 0 0 0 0 0 0 0 0 0 0 0 0 0
0 0 0 0 0 0 0 0 0 0 0 0 0 0 0 0 0 0 0 0 0 0 0 0 0 0 0 0 0 0 0 0 0 0 0 0 0 0
0 0 0 0 0 0 0 0 0 0 0 0 0 0 0 0 0 0 0 0 0 0 0 0 0 0 0 0 0 0 0 0 0 0 0 0 0 0
0 0 0 0 0 0 0 0 0 0 0 0 0 0 0 0 0 0 0 0 0 0 0 0 0 0 0 0 0 0 0 0 0 0 0 0 0 0
Wind_Speed
6 5 4 3 3 4 4 4 6 7 6 2 4 3 4 5 4 8 10 7 9 13 15 15 16 16 17 18 18 19 20 20 21 21 22 23 23 23
4 5 5 4 4 3 4 4 5 7 8 5 5 6 6 8 7 9 11 10 15 16 15 14 15 16 18 18 19 19 20 20 21 21 22 23 23 24
5 5 4 5 5 5 4 4 5 5 7 7 6 6 7 10 9 10 11 11 10 10 10 12 14 17 18 18 19 19 19 20 20 21 22 23 23 23
5 5 5 4 5 5 5 6 5 6 8 9 8 8 9 10 10 11 11 9 10 7 9 13 15 17 17 17 18 17 17 18 19 20 21 22 23 23
6 6 6 6 6 6 7 6 6 6 6 8 9 8 9 8 10 10 11 9 11 9 9 14 15 16 16 15 16 16 15 15 17 18 20 21 21 21
6 6 6 6 7 7 6 6 7 8 8 8 8 8 8 8 8 9 9 8 9 11 11 10 10 13 17 17 17 17 15 14 14 15 16 17 19 19
6 6 6 5 6 7 8 9 9 8 8 8 8 9 8 8 8 8 9 9 10 9 9 9 8 9 9 11 14 14 12 12 13 14 14 15 15 16
7 7 6 3 3 7 8 9 10 11 11 10 9 9 11 10 9 8 9 9 8 7 9 10 9 9 8 7 2 4 8 10 12 13 14 14 14 15
8 8 7 6 7 8 7 9 11 13 13 11 12 11 11 10 10 11 10 10 10 9 9 10 9 8 8 5 2 6 8 10 11 12 13 13 13 14
7 7 7 7 7 9 12 12 11 8 6 8 9 10 10 9 10 11 11 10 11 9 7 8 8 8 9 6 2 5 8 10 11 11 11 12 12 13
7 6 7 7 7 9 12 12 11 9 5 8 10 12 13 13 12 9 8 8 8 7 5 5 7 9 9 7 3 4 8 9 10 10 10 11 11 12
7 5 0 4 8 10 11 11 11 10 10 8 8 9 10 10 12 10 7 7 7 6 4 5 6 6 6 6 7 7 5 5 8 10 9 9 9 9
8 6 5 5 10 11 11 10 9 11 11 10 8 6 5 3 3 4 5 5 7 6 5 4 5 5 5 6 7 7 7 6 6 5 5 6 7 8
8 7 7 11 14 14 10 8 11 12 8 7 6 5 4 4 4 5 6 5 5 7 7 5 4 6 6 6 6 7 8 7 6 6 5 3 4 5
7 9 12 13 13 10 7 10 11 7 6 5 5 5 5 5 5 5 5 5 4 4 4 6 5 5 5 5 6 6 7 7 7 7 7 5 4 4
7 8 10 11 9 8 8 6 5 5 6 6 6 5 5 4 4 4 5 5 5 4 4 5 5 5 5 6 6 7 7 6 7 7 6 5 5 5
10 7 5 6 6 5 5 5 5 5 5 5 6 6 6 5 5 4 5 5 5 6 6 5 4 3 3 5 6 7 8 7 7 7 6 5 4 5
9 5 6 7 7 7 8 7 7 7 7 7 7 7 7 6 6 5 5 5 6 6 6 6 6 5 3 2 4 7 7 7 7 7 5 5 4 5
6 5 6 6 7 8 8 8 8 8 8 7 7 8 7 7 6 6 6 6 6 6 6 6 6 6 6 6 3 3 7 7 7 7 6 5 5 5
5 6 7 7 8 8 8 8 8 8 8 8 8 8 8 7 7 6 6 8 7 6 6 6 7 6 6 5 4 3 6 8 7 8 8 5 4 4
7 7 7 8 8 8 8 8 8 8 9 9 8 9 8 8 8 7 6 5 6 6 7 6 5 3 3 3 4 4 4 4 5 7 9 7 6 7
7 8 8 8 8 9 9 9 9 9 9 9 9 9 8 8 8 9 8 7 6 7 7 5 5 4 5 6 6 6 5 4 4 5 8 8 6 6
8 8 8 8 9 9 9 10 11 10 10 10 9 9 9 8 8 8 8 7 7 8 7 6 6 6 6 6 6 7 9 7 5 5 6 5 5 4
Wind_Direction
41 35 17 14 351 346 330 314 305 297 285 246 262 276 289 299 313 296 297 299 298 290 288 288 289 289 287 287 285 284 282 281 280 279 278 277 277 277
29 25 4 356 349 329 320 313 307 303 301 307 297 300 320 305 293 295 290 282 262 259 263 274 281 284 284 284 283 282 281 281 280 280 279 278 277 276
20 18 5 346 332 326 316 308 304 303 298 298 300 302 299 294 301 299 293 288 282 245 244 264 275 279 281 281 281 281 280 281 282 281 280 279 278 277
11 358 348 338 329 314 316 309 309 309 296 302 304 303 301 297 295 296 292 292 295 280 241 253 265 270 273 274 276 277 278 279 280 280 279 278 277 277
2 351 343 335 325 332 318 314 312 305 300 296 297 301 296 298 300 292 294 296 295 295 258 246 252 256 260 263 266 269 269 271 274 276 277 276 275 275
357 343 340 339 336 330 314 315 312 307 298 292 294 298 297 301 300 303 307 309 309 307 301 292 271 249 249 252 255 259 262 264 268 272 273 273 273 272
347 341 347 347 338 324 322 325 316 310 306 303 303 304 306 314 313 317 311 309 304 301 304 300 294 286 279 255 245 252 259 264 268 270 271 269 267 267
341 336 324 281 321 276 274 289 298 300 308 306 303 306 309 312 317 311 305 305 305 310 307 303 303 303 304 300 279 249 265 272 276 277 274 270 267 265
336 330 327 347 313 325 308 276 265 250 256 283 294 300 305 312 314 307 304 304 302 304 302 302 308 309 304 303 251 266 273 277 279 279 277 274 270 266
330 326 324 324 353 342 319 308 305 297 272 266 286 295 301 309 305 298 297 296 293 292 303 305 314 316 313 312 248 249 266 275 280 282 280 277 273 269
327 329 326 327 32 341 309 305 311 314 274 247 262 272 278 276 277 289 295 296 303 316 339 318 317 320 314 317 322 257 267 272 278 282 283 282 280 275
326 322 320 337 342 321 309 310 314 322 321 305 273 259 259 253 241 257 287 301 311 315 339 319 310 323 314 318 331 328 320 294 275 273 278 286 290 285
326 333 9 2 327 313 300 294 306 310 304 302 302 303 299 292 270 270 288 297 305 306 315 319 306 313 302 307 318 329 330 330 325 308 271 271 284 293
321 336 347 335 318 306 297 301 300 293 289 299 309 323 330 334 335 324 316 306 293 293 303 308 292 304 308 310 315 325 330 332 332 331 334 317 283 277
325 326 311 304 302 293 271 281 286 287 303 316 329 336 337 334 323 320 324 325 315 305 312 313 303 303 305 309 317 326 329 330 339 340 341 344 342 337
326 313 293 283 282 297 300 289 292 321 330 328 332 331 328 330 329 337 341 343 349 357 356 341 318 315 327 339 339 341 340 331 333 339 342 346 352 356
322 312 330 344 348 350 346 345 342 343 337 336 337 337 341 347 352 353 351 349 358 358 358 359 350 343 355 0 353 348 339 338 339 340 338 344 3 9
304 332 352 355 352 351 352 355 357 356 350 346 345 345 347 351 1 5 1 360 3 9 9 2 359 4 26 64 20 347 342 338 338 340 344 339 355 10
309 356 359 355 353 353 355 355 354 353 349 349 352 352 353 357 3 9 6 9 13 16 15 11 11 5 6 14 32 14 349 346 346 351 354 347 348 358
0 3 -0 358 357 355 354 354 351 352 354 354 359 358 357 359 5 11 14 10 10 14 20 19 20 13 4 0 358 15 14 6 1 357 354 350 6 7
4 1 1 359 356 351 353 354 352 352 356 352 358 358 357 358 5 9 16 15 357 12 17 20 17 327 326 1 24 34 50 51 25 13 1 359 6 13
1 357 357 358 356 352 352 355 355 356 356 356 356 355 356 357 1 6 10 12 13 15 15 14 8 6 18 22 24 28 44 76 100 78 48 32 17 12
359 350 347 357 360 354 357 356 355 356 0 357 354 353 354 357 358 4 10 12 11 10 11 16 16 20 25 28 27 31 36 44 58 67 67 59 53 47